Date String (YYYY-MM-DD hh:mm:ss) UTC,Instrument flags,absolute air pressure of the measurement (hPa),sample flow rate (lpm),inlet stack bypass flow (lpm),air temperature of the measurement (°C),ambient temperature measured by the external sensor (°C),aerosol sample conditioner tube jacket temperature (°C),OPC LED temperature (°C),internal box temperature (°C),relative humidity of the measurement (%),span deviation,mass concentration of particles derived from Lorenz-Mie calculation of OPC scattering (μg/m³),mass concentration of particles derived from Lorenz-Mie calculation of OPC scattering (μg/m³),mass concentration of particles derived from Lorenz-Mie calculation of OPC scattering (μg/m³)
DateTimeUTC,F1_M11,P_M11,Q1_M11,Q2_M11,T1_M11,T2_M11,T3_M11,T4_M11,T5_M11,U1_M11,ZSPAN_M11,X0_M11,X2_M11,X1_M11
2023-06-10 20:00:00,SystemResetWarning,0829.1,5.01,000.00,029.3,027.3,000.0,037.7,030.9,26.3,0000.6,0011.80,0004.45,0003.78
2023-06-10 20:01:00,SystemResetWarning,0829.2,5.01,000.00,029.3,027.5,000.0,037.8,030.9,24.7,0000.2,0011.34,0004.44,0003.78
2023-06-10 20:02:00,SystemResetWarning,0829.2,5.00,000.00,029.3,027.7,000.0,037.8,031.0,24.3,0000.6,0010.44,0004.44,0003.79
2023-06-10 20:03:00,SystemResetWarning,0829.3,5.00,000.00,029.3,027.9,000.0,037.8,031.0,24.1,0000.0,0010.35,0004.39,0003.79
2023-06-10 20:04:00,SystemResetWarning,0829.3,4.99,000.00,029.4,027.1,000.0,037.8,031.1,24.2,0000.0,0010.36,0004.39,0003.78
2023-06-10 20:05:00,SystemResetWarning,0829.4,5.01,000.00,029.4,025.4,000.0,037.7,031.0,24.5,0000.0,0010.48,0004.33,0003.73
2023-06-10 20:06:00,SystemResetWarning,0829.3,5.01,000.00,029.4,025.3,000.0,037.7,031.0,24.2,0000.0,0010.39,0004.32,0003.70
2023-06-10 20:07:00,SystemResetWarning,0829.4,5.00,000.00,029.3,025.6,000.0,037.7,030.8,24.6,0000.0,0009.81,0004.32,0003.68
2023-06-10 20:08:00,SystemResetWarning,0829.3,5.00,000.00,029.2,025.9,000.0,037.7,030.7,25.3,0000.0,0009.84,0004.26,0003.65
2023-06-10 20:09:00,SystemResetWarning,0829.3,4.99,000.00,029.2,026.3,000.0,037.7,030.8,24.7,0000.0,0009.99,0004.26,0003.64
2023-06-10 20:10:00,SystemResetWarning,0829.3,5.01,000.00,029.2,026.7,000.0,037.7,030.8,24.7,0000.0,0010.44,0004.29,0003.63
2023-06-10 20:11:00,SystemResetWarning,0829.3,5.01,000.00,029.2,027.0,000.0,037.8,030.9,25.1,0000.0,0010.25,0004.35,0003.63
2023-06-10 20:12:00,SystemResetWarning,0829.3,5.00,000.00,029.3,027.3,000.0,037.8,030.9,25.7,0000.0,0010.33,0004.35,0003.61
2023-06-10 20:13:00,SystemResetWarning,0829.4,4.99,000.00,029.3,027.6,000.0,037.8,031.0,24.4,0000.0,0010.35,0004.32,0003.58
2023-06-10 20:14:00,SystemResetWarning,0829.4,5.00,000.00,029.3,027.8,000.0,037.8,031.0,24.4,0000.0,0010.31,0004.32,0003.55
2023-06-10 20:15:00,SystemResetWarning,0829.4,5.00,000.00,029.4,027.9,000.0,037.8,031.1,24.5,0000.0,0010.23,0004.25,0003.53
2023-06-10 20:16:00,SystemResetWarning,0829.4,5.01,000.00,029.4,028.0,000.0,037.8,031.1,24.3,0000.0,0010.42,0004.23,0003.51
2023-06-10 20:17:00,SystemResetWarning,0829.4,4.99,000.00,029.4,026.8,000.0,037.8,031.1,24.8,0000.0,0010.55,0004.20,0003.50
2023-06-10 20:18:00,SystemResetWarning,0829.4,5.01,000.00,029.4,025.3,000.0,037.8,031.0,24.5,0000.0,0010.17,0004.18,0003.48
2023-06-10 20:19:00,SystemResetWarning,0829.3,5.00,000.00,029.4,025.3,000.0,037.7,030.9,24.3,0000.0,0009.97,0004.21,0003.48
2023-06-10 20:20:00,SystemResetWarning,0829.4,5.00,000.00,029.3,025.6,000.0,037.8,030.7,25.1,0000.0,0009.44,0004.14,0003.46
2023-06-10 20:21:00,SystemResetWarning,0829.3,5.00,000.00,029.2,026.0,000.0,037.8,030.7,24.8,0000.0,0009.31,0004.12,0003.45
2023-06-10 20:22:00,SystemResetWarning,0829.3,5.00,000.00,029.2,026.4,000.0,037.8,030.7,25.0,0000.0,0009.35,0004.08,0003.44
2023-06-10 20:23:00,SystemResetWarning,0829.3,5.00,000.00,029.2,026.7,000.0,037.8,030.8,24.4,0000.0,0009.29,0004.07,0003.44
2023-06-10 20:24:00,SystemResetWarning,0829.3,5.01,000.00,029.3,027.0,000.0,037.8,030.9,24.6,0000.0,0009.25,0004.10,0003.45
2023-06-10 20:25:00,SystemResetWarning,0829.3,5.00,000.00,029.3,027.3,000.0,037.8,030.9,24.9,0000.0,0009.20,0004.08,0003.45
2023-06-10 20:26:00,SystemResetWarning,0829.3,4.99,000.00,029.3,027.5,000.0,037.8,031.0,25.0,0000.0,0009.10,0004.09,0003.44
2023-06-10 20:27:00,SystemResetWarning,0829.3,4.99,000.00,029.3,027.7,000.0,037.8,031.0,25.2,0000.0,0008.82,0004.12,0003.45
2023-06-10 20:28:00,SystemResetWarning,0829.3,5.00,000.00,029.4,027.9,000.0,037.8,031.1,24.7,0000.0,0008.56,0004.14,0003.45
2023-06-10 20:29:00,SystemResetWarning,0829.3,5.00,000.00,029.4,027.9,000.0,037.8,031.1,25.1,0000.0,0008.42,0004.12,0003.47
2023-06-10 20:30:00,SystemResetWarning,0829.4,4.99,000.00,029.4,026.3,000.0,037.8,031.1,24.7,0000.0,0008.41,0004.12,0003.48
2023-06-10 20:31:00,SystemResetWarning,0829.4,5.01,000.00,029.4,025.2,000.0,037.8,031.0,24.6,0000.0,0008.59,0004.18,0003.49
2023-06-10 20:32:00,SystemResetWarning,0829.3,5.01,000.00,029.4,025.3,000.0,037.7,030.9,24.9,0000.0,0008.49,0004.17,0003.51
2023-06-10 20:33:00,SystemResetWarning,0829.4,4.98,000.00,029.3,025.6,000.0,037.8,030.7,25.0,0000.0,0008.16,0004.18,0003.52
2023-06-10 20:34:00,SystemResetWarning,0829.3,5.00,000.00,029.3,026.0,000.0,037.8,030.7,25.5,0000.0,0008.08,0004.19,0003.52
2023-06-10 20:35:00,SystemResetWarning,0829.3,5.00,000.00,029.2,026.4,000.0,037.8,030.8,25.9,0000.0,0008.06,0004.18,0003.51
2023-06-10 20:36:00,SystemResetWarning,0829.4,5.01,000.00,029.2,026.8,000.0,037.8,030.8,25.7,0000.0,0008.03,0004.17,0003.51
2023-06-10 20:37:00,SystemResetWarning,0829.4,5.00,000.00,029.3,027.1,000.0,037.8,030.8,24.8,0000.0,0008.04,0004.18,0003.51
2023-06-10 20:38:00,SystemResetWarning,0829.4,5.00,000.00,029.3,027.3,000.0,037.8,030.9,25.2,0000.0,0007.97,0004.18,0003.52
2023-06-10 20:39:00,SystemResetWarning,0829.4,5.00,000.00,029.3,027.5,000.0,037.8,030.9,24.6,0000.0,0007.83,0004.16,0003.52
2023-06-10 20:40:00,SystemResetWarning,0829.3,5.00,000.00,029.3,027.7,000.0,037.8,031.0,24.8,0000.0,0007.90,0004.16,0003.51
2023-06-10 20:41:00,SystemResetWarning,0829.3,5.00,000.00,029.4,027.9,000.0,037.8,031.0,24.3,0000.0,0007.94,0004.19,0003.52
2023-06-10 20:42:00,SystemResetWarning,0829.3,5.00,000.00,029.4,028.0,000.0,037.8,031.1,24.3,0000.0,0007.95,0004.16,0003.52
2023-06-10 20:43:00,SystemResetWarning,0829.3,4.99,000.00,029.4,027.9,000.0,037.8,031.1,24.1,0000.0,0007.67,0004.15,0003.52
2023-06-10 20:44:00,SystemResetWarning,0829.4,5.00,000.00,029.5,026.1,000.0,037.8,031.1,24.4,0000.0,0007.62,0004.15,0003.52
2023-06-10 20:45:00,SystemResetWarning,0829.3,5.01,000.00,029.4,025.2,000.0,037.8,031.0,25.2,0000.0,0007.66,0004.14,0003.52
2023-06-10 20:46:00,SystemResetWarning,0829.3,5.00,000.00,029.4,025.4,000.0,037.8,030.8,25.3,0000.0,0007.60,0004.12,0003.53
2023-06-10 20:47:00,SystemResetWarning,0829.3,5.00,000.00,029.3,025.7,000.0,037.8,030.7,25.0,0000.0,0007.67,0004.13,0003.53
2023-06-10 20:48:00,SystemResetWarning,0829.3,5.00,000.00,029.3,026.1,000.0,037.8,030.7,25.1,0000.0,0007.61,0004.12,0003.53
2023-06-10 20:49:00,SystemResetWarning,0829.3,5.00,000.00,029.2,026.5,000.0,037.8,030.8,24.9,0000.0,0007.61,0004.10,0003.52
2023-06-10 20:50:00,SystemResetWarning,0829.3,4.99,000.00,029.3,026.8,000.0,037.8,030.8,25.1,0000.0,0007.58,0004.08,0003.51
2023-06-10 20:51:00,SystemResetWarning,0829.4,4.99,000.00,029.3,027.1,000.0,037.8,030.8,25.9,0000.0,0007.86,0004.10,0003.51
2023-06-10 20:52:00,SystemResetWarning,0829.4,5.00,000.00,029.3,027.3,000.0,037.8,030.9,25.7,0000.0,0007.81,0004.06,0003.50
2023-06-10 20:53:00,SystemResetWarning,0829.4,5.00,000.00,029.3,027.5,000.0,037.8,031.0,25.5,0000.0,0007.69,0004.06,0003.48
2023-06-10 20:54:00,SystemResetWarning,0829.4,5.01,000.00,029.3,027.7,000.0,037.8,031.0,24.9,0000.0,0007.67,0004.05,0003.48
2023-06-10 20:55:00,SystemResetWarning,0829.3,5.00,000.00,029.4,027.9,000.0,037.8,031.1,24.7,0000.0,0007.67,0004.05,0003.47
2023-06-10 20:56:00,SystemResetWarning,0829.4,5.00,000.00,029.4,028.0,000.0,037.9,031.1,24.8,0000.0,0007.75,0004.07,0003.47
2023-06-10 20:57:00,SystemResetWarning,0829.4,4.99,000.00,029.4,026.7,000.0,037.8,031.1,24.3,0000.0,0007.89,0004.07,0003.47
2023-06-10 20:58:00,SystemResetWarning,0829.3,5.00,000.00,029.4,025.2,000.0,037.8,031.0,23.9,0000.0,0007.94,0004.07,0003.47
2023-06-10 20:59:00,SystemResetWarning,0829.3,5.01,000.00,029.4,025.2,000.0,037.8,030.9,24.4,0000.0,0008.13,0004.08,0003.47
